Regional Weather Roundup
Issued by NWS Huntsville, AL

Home | Current Version | Previous Version | Text Only | Print | Product List | Glossary On
Versions: 1 2 3 4 5 6 7 8 9 10 11 12 13 14 15 16 17 18 19 20 21 22 23 24 25 26 27 28 29 30 31 32 33 34 35 36 37 38 39 40 41 42 43 44 45 46 47 48 49 50
000
ASUS44 KHUN 211610
RWRHUN

WEATHER ROUNDUP FOR THE TENNESSEE VALLEY
NATIONAL WEATHER SERVICE HUNTSVILLE AL
1100 AM CDT MON AUG 21 2017

ALZ001>004-211700-
NORTHWEST ALABAMA

CITY           SKY/WX    TMP DP  RH WIND       PRES   REMARKS
COURTLAND HCN    N/A     86 N/A N/A CALM        N/A
RUSSELLVILLE     N/A     86 N/A N/A MISG        N/A
SHOALS AIRPORT SUNNY     89  74  60 CALM      30.19F HX  98
SHOALS TVA RES   N/A     88 N/A N/A MISG        N/A
$$

ALZ005>007-016-211700-
NORTH CENTRAL ALABAMA

CITY           SKY/WX    TMP DP  RH WIND       PRES   REMARKS
CULLMAN AG STN   N/A     88 N/A N/A CALM        N/A
DECATUR AP     SUNNY     89  74  60 CALM      30.19F HX  98
HUNTSVILLE AP  MOSUNNY   91  75  59 NW3       30.19S HX 101
MERIDIANVILLE  SUNNY     88  68  51 CALM      30.21S HX  91
REDSTONE ARSN  SUNNY     89  74  61 CALM      30.18S HX  97
VINEMONT AP    PTSUNNY  N/A N/A N/A SE3       30.23S
$$

ALZ008>010-211700-
NORTHEAST ALABAMA

CITY           SKY/WX    TMP DP  RH WIND       PRES   REMARKS
ALBERTVILLE    MOSUNNY   88  77  70 CALM      30.20F HX 100
FORT PAYNE     SUNNY     86  66  51 CALM      30.20F
SCOTTSBORO HCN   N/A     84 N/A N/A MISG        N/A
$$

TNZ076-096-097-211700-
SOUTHEASTERN MIDDLE TENNESSEE

CITY           SKY/WX    TMP DP  RH WIND       PRES   REMARKS
TULLAHOMA      SUNNY     88  68  51 S5        30.23S HX  91
WINCHESTER     SUNNY     90  72  55 CALM      30.21F HX  96
$$

...SURROUNDING SITES...

CITY           SKY/WX    TMP DP  RH WIND       PRES   REMARKS
ATLANTA        MOSUNNY   89  70  53 NE5       30.21S HX  94
ANNISTON       SUNNY     89  71  55 NE5       30.19S HX  95
BIRMINGHAM     MOSUNNY   89  70  53 CALM      30.21S HX  94
CHATTANOOGA    MOSUNNY   87  69  54 CALM      30.21F HX  91
DALTON         NOT AVBL
GADSDEN        SUNNY     89  74  60 VRB3      30.20S HX  98
GOLDEN TRNGL   PTSUNNY   90  75  62 CALM      30.12R HX 100
HALEYVILLE     FAIR      88  75  65 N3        30.22S HX  97
JACKSON TN     MOSUNNY   89  78  70 CALM      30.17R HX 103
MEMPHIS        MOSUNNY   91  76  61 VRB6      30.16R HX 103
NASHVILLE      MOSUNNY   90  70  51 CALM      30.19S HX  95
OXFORD MS      FAIR      88  73  62 N5        30.18F HX  96
ROME           SUNNY     89  74  60 NE3       30.20S HX  98
SAVANNAH       SUNNY     90  75  62 CALM      30.16F HX 100
SELMER         SUNNY     88  75  66 CALM      30.17S HX  97
TUPELO         SUNNY     89  73  59 CALM      30.16S HX  97
TUSCALOOSA     SUNNY     91  75  59 VRB3      30.16S HX 101
$$

...GULF COAST WEATHER...

CITY           SKY/WX    TMP DP  RH WIND       PRES   REMARKS
GULFPORT       PTSUNNY   90  77  65 N5        30.12R HX 103
PASCAGOULA     MOSUNNY   89  74  60 N5        30.13R HX  98
MOBILE         PTSUNNY   90  74  59 E6        30.14S HX  99
GULF SHORES    MOSUNNY   87  77  71 CALM      30.13S HX  99
PENSACOLA      PTSUNNY   91  76  61 VRB3      30.13R HX 103
DESTIN         CLOUDY    90  78  68 SE7       30.14R HX 104
PANAMA CITY    CLOUDY    86  75  69 E7        30.15R HX  95
APPALACHICOLA  MOSUNNY   85  80  85 E6        30.14R HX  99
$$




USA.gov is the U.S. government's official web portal to all federal, state and local government web resources and services.